DW9672 Weather Reports


Display with metric or nautical units.
time (UTC)temp
F
wind
direction
speed
MPH
gust
MPH
rain 1hr
in
rain 24hr
in
rain mn
in
humidity
%
barometer
mb
20260902023050 78 209 0.0 0.0 0.00 0.00 0.00 94 1015.1
20260902021536 78 209 0.0 0.0 0.00 0.00 0.00 94 1015.1
20260902020035 79 209 0.0 0.0 0.00 0.00 0.00 93 1015.0
20260902014538 79 209 0.0 0.0 0.00 0.00 0.00 92 1014.9
20260902013035 80 209 0.0 0.0 0.00 0.00 0.00 92 1014.8
20260902011535 81 209 0.0 0.0 0.00 0.00 0.00 91 1014.6
20260902010035 82 209 0.0 0.0 0.00 0.00 0.00 89 1014.6
20260902004533 83 209 0.0 0.0 0.00 0.00 0.00 88 1014.4
20260902003035 84 209 0.0 0.0 0.00 0.00 0.00 86 1014.3
20260902001534 86 209 0.0 0.0 0.00 0.00 0.00 83 1014.4
20260902000033 87 209 0.0 0.0 0.00 0.00 0.00 78 1014.4
20260901234521 90 209 0.0 0.0 0.00 0.00 0.00 73 1014.5
20260901233020 92 209 0.0 0.0 0.00 0.00 0.00 69 1014.5
20260901231520 95 209 0.0 0.0 0.00 0.00 0.00 66 1014.5
20260901230019 96 209 0.0 0.0 0.00 0.00 0.00 65 1014.6
20260901224526 97 207 0.0 2.0 0.00 0.00 0.00 62 1014.5
20260901223018 96 229 0.0 0.0 0.00 0.00 0.00 63 1014.6
20260901221604 96 224 0.0 3.0 0.00 0.00 0.00 58 1014.5
20260901220116 96 217 0.0 2.0 0.00 0.00 0.00 57 1014.5
20260901214542 97 298 0.0 4.0 0.00 0.00 0.00 58 1014.4
20260901213040 96 161 0.0 3.0 0.00 0.00 0.00 58 1014.5
20260901211531 96 250 1.0 5.0 0.00 0.00 0.00 57 1014.4
20260901210023 96 234 0.0 5.0 0.00 0.00 0.00 57 1014.5
20260901204504 96 229 0.0 3.0 0.00 0.00 0.00 59 1014.6
20260901203003 95 175 1.0 4.0 0.00 0.00 0.00 59 1014.7
20260901201543 95 157 1.0 3.0 0.00 0.00 0.00 58 1014.7
20260901200040 95 297 0.0 5.0 0.00 0.00 0.00 60 1014.8
20260901194521 95 240 0.0 4.0 0.00 0.00 0.00 60 1014.8
20260901193024 94 330 0.0 5.0 0.00 0.00 0.00 61 1014.9
20260901191502 94 246 0.0 5.0 0.00 0.00 0.00 64 1015.0
20260901190100 93 186 1.0 5.0 0.00 0.00 0.00 62 1015.1
20260901184548 93 360 0.0 5.0 0.00 0.00 0.00 65 1015.2
20260901183043 92 272 0.0 4.0 0.00 0.00 0.00 67 1015.3
20260901181543 91 213 0.0 3.0 0.00 0.00 0.00 68 1015.4
20260901180039 91 268 0.0 4.0 0.00 0.00 0.00 70 1015.5
20260901174535 90 277 1.0 4.0 0.00 0.00 0.00 71 1015.5
20260901173036 89 236 2.0 5.0 0.00 0.00 0.00 71 1015.6
20260901171531 88 232 0.0 3.0 0.00 0.00 0.00 75 1015.7
20260901170055 88 229 0.0 5.0 0.00 0.00 0.00 77 1015.7
20260901164510 87 201 0.0 5.0 0.00 0.00 0.00 77 1015.8
20260901163005 86 290 0.0 5.0 0.00 0.00 0.00 76 1015.8
20260901161553 86 35 0.0 4.0 0.00 0.00 0.00 77 1016.1
20260901160051 85 227 0.0 4.0 0.00 0.00 0.00 78 1016.1
20260901154530 85 348 0.0 5.0 0.00 0.00 0.00 77 1016.2
20260901153028 84 202 1.0 5.0 0.00 0.00 0.00 78 1016.1
20260901151529 84 219 1.0 4.0 0.00 0.00 0.00 78 1016.1
20260901150035 83 300 1.0 5.0 0.00 0.00 0.00 78 1016.3
20260901144521 83 229 0.0 4.0 0.00 0.00 0.00 80 1016.2
20260901143019 82 19 0.0 0.0 0.00 0.00 0.00 81 1016.3
20260901141515 81 22 0.0 0.0 0.00 0.00 0.00 82 1016.1
20260901140011 80 181 0.0 0.0 0.00 0.00 0.00 85 1016.3
20260901134551 79 215 0.0 0.0 0.00 0.00 0.00 87 1016.2
20260901133057 77 191 0.0 0.0 0.00 0.00 0.00 88 1016.2
20260901131543 77 223 0.0 0.0 0.00 0.00 0.00 89 1016.2
20260901130030 75 215 0.0 0.0 0.00 0.00 0.00 91 1016.2
20260901124513 74 190 0.0 0.0 0.00 0.00 0.00 93 1016.2
20260901123027 73 190 0.0 0.0 0.00 0.00 0.00 94 1016.1
20260901121603 72 190 0.0 0.0 0.00 0.00 0.00 95 1016.0
20260901120056 72 190 0.0 0.0 0.00 0.00 0.00 95 1015.8
20260901114542 72 190 0.0 0.0 0.00 0.00 0.00 94 1015.6
20260901113045 72 190 0.0 0.0 0.00 0.00 0.00 94 1015.5
20260901111537 72 190 0.0 0.0 0.00 0.00 0.00 94 1015.3
20260901110036 72 190 0.0 0.0 0.00 0.00 0.00 94 1015.1
20260901104538 72 190 0.0 0.0 0.00 0.00 0.00 94 1015.1
20260901103032 72 189 0.0 0.0 0.00 0.00 0.00 94 1015.0
20260901101531 72 189 0.0 0.0 0.00 0.00 0.00 94 1015.0
20260901100031 73 189 0.0 0.0 0.00 0.00 0.00 93 1015.1
20260901094520 73 189 0.0 0.0 0.00 0.00 0.00 93 1015.0
20260901093011 73 189 0.0 0.0 0.00 0.00 0.00 93 1015.0
20260901091552 73 189 0.0 0.0 0.00 0.00 0.00 93 1015.0
20260901090052 73 189 0.0 0.0 0.00 0.00 0.00 93 1015.0
20260901084552 73 189 0.0 0.0 0.00 0.00 0.00 93 1015.1
20260901083035 73 189 0.0 0.0 0.00 0.00 0.00 93 1015.2
20260901081517 74 189 0.0 0.0 0.00 0.00 0.00 92 1015.2
20260901080016 74 189 0.0 0.0 0.00 0.00 0.00 91 1015.2
20260901074558 75 189 0.0 0.0 0.00 0.00 0.00 90 1015.0
20260901073053 75 189 0.0 0.0 0.00 0.00 0.00 89 1015.1
20260901071533 76 189 0.0 0.0 0.00 0.00 0.00 88 1015.0
20260901070036 76 189 0.0 0.0 0.00 0.00 0.00 88 1014.8
20260901064514 76 192 0.0 1.0 0.00 0.01 0.00 88 1014.8
20260901063013 76 254 0.0 1.0 0.00 0.01 0.00 88 1014.8
20260901061556 76 263 0.0 2.0 0.00 0.01 0.00 89 1014.6
20260901060056 76 163 0.0 0.0 0.00 0.01 0.00 89 1014.7
20260901054543 76 163 0.0 0.0 0.00 0.01 0.00 90 1014.8
20260901053051 76 163 0.0 0.0 0.00 0.01 0.00 90 1014.7
20260901051546 76 163 0.0 0.0 0.00 0.01 0.00 91 1014.7
20260901050041 76 163 0.0 0.0 0.00 0.01 0.00 90 1014.7
20260901044540 77 163 0.0 0.0 0.00 0.01 0.00 90 1014.7
20260901043036 77 163 0.0 0.0 0.00 0.01 0.00 89 1014.7
20260901041536 78 163 0.0 0.0 0.00 0.01 0.00 89 1014.5
20260901040031 78 163 0.0 0.0 0.00 0.01 0.00 89 1014.5
20260901034537 79 163 0.0 0.0 0.00 0.01 0.01 88 1014.5
20260901033013 79 163 0.0 0.0 0.00 0.01 0.01 87 1014.5
20260901031512 79 163 0.0 2.0 0.00 0.01 0.01 87 1014.5
20260901030055 79 153 0.0 2.0 0.00 0.01 0.01 88 1014.5
20260901024601 79 193 0.0 0.0 0.00 0.01 0.01 89 1014.7